Year,Month,Day,Hour,Minute,Value (Times are PST for windspeed in km/hr)
2008,06,13,00,00,1.00
2008,06,13,00,01,2.00
2008,06,13,00,02,1.70
2008,06,13,00,03,1.00
2008,06,13,00,04,1.70
2008,06,13,00,05,1.20
2008,06,13,00,06,2.30
2008,06,13,00,07,0.00
2008,06,13,00,08,0.00
2008,06,13,00,09,0.00
2008,06,13,00,10,1.80
2008,06,13,00,11,3.20
2008,06,13,00,12,0.10
2008,06,13,00,13,0.00
2008,06,13,00,14,0.00
2008,06,13,00,15,0.00
2008,06,13,00,16,0.60
2008,06,13,00,17,0.00
2008,06,13,00,18,0.80
2008,06,13,00,19,1.00
2008,06,13,00,20,0.30
2008,06,13,00,21,1.70
2008,06,13,00,22,1.50
2008,06,13,00,23,2.80
2008,06,13,00,24,2.60
2008,06,13,00,25,0.20
2008,06,13,00,26,2.60
2008,06,13,00,27,3.00
2008,06,13,00,28,1.80
2008,06,13,00,29,0.80
2008,06,13,00,30,0.40
2008,06,13,00,31,2.70
2008,06,13,00,32,2.90
2008,06,13,00,33,4.90
2008,06,13,00,34,1.50
2008,06,13,00,35,5.40
2008,06,13,00,36,5.20
2008,06,13,00,37,7.00
2008,06,13,00,38,7.20
2008,06,13,00,39,6.80
2008,06,13,00,40,4.70
2008,06,13,00,41,3.50
2008,06,13,00,42,4.30
2008,06,13,00,43,7.30
2008,06,13,00,44,5.10
2008,06,13,00,45,2.70
2008,06,13,00,46,2.70
2008,06,13,00,47,6.20
2008,06,13,00,48,6.90
2008,06,13,00,49,5.90
2008,06,13,00,50,7.20
2008,06,13,00,51,7.10
2008,06,13,00,52,6.40
2008,06,13,00,53,11.60
2008,06,13,00,54,10.50
2008,06,13,00,55,9.50
2008,06,13,00,56,7.20
2008,06,13,00,57,6.00
2008,06,13,00,58,7.90
2008,06,13,00,59,4.20
2008,06,13,01,00,4.30
2008,06,13,01,01,5.50
2008,06,13,01,02,2.70
2008,06,13,01,03,3.40
2008,06,13,01,04,1.40
2008,06,13,01,05,1.50
2008,06,13,01,06,3.60
2008,06,13,01,07,4.20
2008,06,13,01,08,2.90
2008,06,13,01,09,3.00
2008,06,13,01,10,2.00
2008,06,13,01,11,0.00
2008,06,13,01,12,0.00
2008,06,13,01,13,0.60
2008,06,13,01,14,0.60
2008,06,13,01,15,0.00
2008,06,13,01,16,0.00
2008,06,13,01,17,1.60
2008,06,13,01,18,3.50
2008,06,13,01,19,2.80
2008,06,13,01,20,5.60
2008,06,13,01,21,7.00
2008,06,13,01,22,6.00
2008,06,13,01,23,3.90
2008,06,13,01,24,4.20
2008,06,13,01,25,2.60
2008,06,13,01,26,5.50
2008,06,13,01,27,3.10
2008,06,13,01,28,1.80
2008,06,13,01,29,4.70
2008,06,13,01,30,3.30
2008,06,13,01,31,3.60
2008,06,13,01,32,0.60
2008,06,13,01,33,0.00
2008,06,13,01,34,0.00
2008,06,13,01,35,0.10
2008,06,13,01,36,1.30
2008,06,13,01,37,1.40
2008,06,13,01,38,0.50
2008,06,13,01,39,0.10
2008,06,13,01,40,0.00
2008,06,13,01,41,2.30
2008,06,13,01,42,2.40
2008,06,13,01,43,2.80
2008,06,13,01,44,1.70
2008,06,13,01,45,1.10
2008,06,13,01,46,3.00
2008,06,13,01,47,2.70
2008,06,13,01,48,0.80
2008,06,13,01,49,2.00
2008,06,13,01,50,2.40
2008,06,13,01,51,3.00
2008,06,13,01,52,3.30
2008,06,13,01,53,3.40
2008,06,13,01,54,2.90
2008,06,13,01,55,4.60
2008,06,13,01,56,4.30
2008,06,13,01,57,5.90
2008,06,13,01,58,5.10
2008,06,13,01,59,5.20
2008,06,13,02,00,4.90
2008,06,13,02,01,4.30
2008,06,13,02,02,4.50
2008,06,13,02,03,3.80
2008,06,13,02,04,4.10
2008,06,13,02,05,4.10
2008,06,13,02,06,4.10
2008,06,13,02,07,2.10
2008,06,13,02,08,1.70
2008,06,13,02,09,2.30
2008,06,13,02,10,1.10
2008,06,13,02,11,1.60
2008,06,13,02,12,1.40
2008,06,13,02,13,1.40
2008,06,13,02,14,0.70
2008,06,13,02,15,2.20
2008,06,13,02,16,4.10
2008,06,13,02,17,2.20
2008,06,13,02,18,4.90
2008,06,13,02,19,6.60
2008,06,13,02,20,6.60
2008,06,13,02,21,8.50
2008,06,13,02,22,8.40
2008,06,13,02,23,8.00
2008,06,13,02,24,7.10
2008,06,13,02,25,7.70
2008,06,13,02,26,8.10
2008,06,13,02,27,11.30
2008,06,13,02,28,10.90
2008,06,13,02,29,5.80
2008,06,13,02,30,4.10
2008,06,13,02,31,5.10
2008,06,13,02,32,6.20
2008,06,13,02,33,6.90
2008,06,13,02,34,1.40
2008,06,13,02,35,2.70
2008,06,13,02,36,6.50
2008,06,13,02,37,3.10
2008,06,13,02,38,0.30
2008,06,13,02,39,0.70
2008,06,13,02,40,0.00
2008,06,13,02,41,0.00
2008,06,13,02,42,0.00
2008,06,13,02,43,0.00
2008,06,13,02,44,0.00
2008,06,13,02,45,0.10
2008,06,13,02,46,0.00
2008,06,13,02,47,0.20
2008,06,13,02,48,0.00
2008,06,13,02,49,0.00
2008,06,13,02,50,0.00
2008,06,13,02,51,0.10
2008,06,13,02,52,0.00
2008,06,13,02,53,0.00
2008,06,13,02,54,0.10
2008,06,13,02,55,0.60
2008,06,13,02,56,0.10
2008,06,13,02,57,0.40
2008,06,13,02,58,0.40
2008,06,13,02,59,0.20
2008,06,13,03,00,0.00
2008,06,13,03,01,0.00
2008,06,13,03,02,0.00
2008,06,13,03,03,0.00
2008,06,13,03,04,0.00
2008,06,13,03,05,0.00
2008,06,13,03,06,0.00
2008,06,13,03,07,0.20
2008,06,13,03,08,1.50
2008,06,13,03,09,1.40
2008,06,13,03,10,1.40
2008,06,13,03,11,2.50
2008,06,13,03,12,2.50
2008,06,13,03,13,2.70
2008,06,13,03,14,1.20
2008,06,13,03,15,3.50
2008,06,13,03,16,3.20
2008,06,13,03,17,4.60
2008,06,13,03,18,2.10
2008,06,13,03,19,1.90
2008,06,13,03,20,1.00
2008,06,13,03,21,0.70
2008,06,13,03,22,1.00
2008,06,13,03,23,1.40
2008,06,13,03,24,3.00
2008,06,13,03,25,2.50
2008,06,13,03,26,2.60
2008,06,13,03,27,1.60
2008,06,13,03,28,0.30
2008,06,13,03,29,0.00
2008,06,13,03,30,1.10
2008,06,13,03,31,0.40
2008,06,13,03,32,0.00
2008,06,13,03,33,1.20
2008,06,13,03,34,2.20
2008,06,13,03,35,2.60
2008,06,13,03,36,0.50
2008,06,13,03,37,0.00
2008,06,13,03,38,0.60
2008,06,13,03,39,3.30
2008,06,13,03,40,3.90
2008,06,13,03,41,0.80
2008,06,13,03,42,0.00
2008,06,13,03,43,1.70
2008,06,13,03,44,3.20
2008,06,13,03,45,1.70
2008,06,13,03,46,2.20
2008,06,13,03,47,3.20
2008,06,13,03,48,1.80
2008,06,13,03,49,2.10
2008,06,13,03,50,3.00
2008,06,13,03,51,0.90
2008,06,13,03,52,0.00
2008,06,13,03,53,1.00
2008,06,13,03,54,5.60
2008,06,13,03,55,3.90
2008,06,13,03,56,2.10
2008,06,13,03,57,5.70
2008,06,13,03,58,4.00
2008,06,13,03,59,5.20
2008,06,13,04,00,4.60
2008,06,13,04,01,3.10
2008,06,13,04,02,4.30
2008,06,13,04,03,5.60
2008,06,13,04,04,4.30
2008,06,13,04,05,0.00
2008,06,13,04,06,2.70
2008,06,13,04,07,2.10
2008,06,13,04,08,1.90
2008,06,13,04,09,2.10
2008,06,13,04,10,2.20
2008,06,13,04,11,1.00
2008,06,13,04,12,0.40
2008,06,13,04,13,0.00
2008,06,13,04,14,0.90
2008,06,13,04,15,0.60
2008,06,13,04,16,1.10
2008,06,13,04,17,2.50
2008,06,13,04,18,0.00
2008,06,13,04,19,0.20
2008,06,13,04,20,0.40
2008,06,13,04,21,1.90
2008,06,13,04,22,0.50
2008,06,13,04,23,3.40
2008,06,13,04,24,5.10
2008,06,13,04,25,2.70
2008,06,13,04,26,1.70
2008,06,13,04,27,1.00
2008,06,13,04,28,1.00
2008,06,13,04,29,1.80
2008,06,13,04,30,1.40
2008,06,13,04,31,0.80
2008,06,13,04,32,2.70
2008,06,13,04,33,1.50
2008,06,13,04,34,1.00
2008,06,13,04,35,1.50
2008,06,13,04,36,1.20
2008,06,13,04,37,0.30
2008,06,13,04,38,1.10
2008,06,13,04,39,1.10
2008,06,13,04,40,0.90
2008,06,13,04,41,0.40
2008,06,13,04,42,0.80
2008,06,13,04,43,3.40
2008,06,13,04,44,3.30
2008,06,13,04,45,1.90
2008,06,13,04,46,3.10
2008,06,13,04,47,2.10
2008,06,13,04,48,1.90
2008,06,13,04,49,2.80
2008,06,13,04,50,0.10
2008,06,13,04,51,2.50
2008,06,13,04,52,1.90
2008,06,13,04,53,2.30
2008,06,13,04,54,2.00
2008,06,13,04,55,0.70
2008,06,13,04,56,2.10
2008,06,13,04,57,1.00
2008,06,13,04,58,2.10
2008,06,13,04,59,1.30
2008,06,13,05,00,0.50
2008,06,13,05,01,2.10
2008,06,13,05,02,3.40
2008,06,13,05,03,3.60
2008,06,13,05,04,2.20
2008,06,13,05,05,0.60
2008,06,13,05,06,4.60
2008,06,13,05,07,1.50
2008,06,13,05,08,4.80
2008,06,13,05,09,4.40
2008,06,13,05,10,2.80
2008,06,13,05,11,0.80
2008,06,13,05,12,0.10
2008,06,13,05,13,3.00
2008,06,13,05,14,1.90
2008,06,13,05,15,3.40
2008,06,13,05,16,6.90
2008,06,13,05,17,6.00
2008,06,13,05,18,2.70
2008,06,13,05,19,1.30
2008,06,13,05,20,2.40
2008,06,13,05,21,0.10
2008,06,13,05,22,1.60
2008,06,13,05,23,1.10
2008,06,13,05,24,4.50
2008,06,13,05,25,3.20
2008,06,13,05,26,6.30
2008,06,13,05,27,6.00
2008,06,13,05,28,3.50
2008,06,13,05,29,1.50
2008,06,13,05,30,3.40
2008,06,13,05,31,3.30
2008,06,13,05,32,6.30
2008,06,13,05,33,3.50
2008,06,13,05,34,1.50
2008,06,13,05,35,2.80
2008,06,13,05,36,3.60
2008,06,13,05,37,3.00
2008,06,13,05,38,4.90
2008,06,13,05,39,3.70
2008,06,13,05,40,2.70
2008,06,13,05,41,3.80
2008,06,13,05,42,3.20
2008,06,13,05,43,4.00
2008,06,13,05,44,1.60
2008,06,13,05,45,2.50
2008,06,13,05,46,5.20
2008,06,13,05,47,4.50
2008,06,13,05,48,3.90
2008,06,13,05,49,1.70
2008,06,13,05,50,1.20
2008,06,13,05,51,1.10
2008,06,13,05,52,0.70
2008,06,13,05,53,0.80
2008,06,13,05,54,0.00
2008,06,13,05,55,0.10
2008,06,13,05,56,1.60
2008,06,13,05,57,1.30
2008,06,13,05,58,0.10
2008,06,13,05,59,0.70
2008,06,13,06,00,0.80
2008,06,13,06,01,1.80
2008,06,13,06,02,3.20
2008,06,13,06,03,2.90
2008,06,13,06,04,0.70
2008,06,13,06,05,1.10
2008,06,13,06,06,0.00
2008,06,13,06,07,2.30
2008,06,13,06,08,0.60
2008,06,13,06,09,1.40
2008,06,13,06,10,1.00
2008,06,13,06,11,2.50
2008,06,13,06,12,1.30
2008,06,13,06,13,2.80
2008,06,13,06,14,2.60
2008,06,13,06,15,1.60
2008,06,13,06,16,3.10
2008,06,13,06,17,1.40
2008,06,13,06,18,0.00
2008,06,13,06,19,1.30
2008,06,13,06,20,3.30
2008,06,13,06,21,1.10
2008,06,13,06,22,1.90
2008,06,13,06,23,2.00
2008,06,13,06,24,1.80
2008,06,13,06,25,2.30
2008,06,13,06,26,0.90
2008,06,13,06,27,0.60
2008,06,13,06,28,1.10
2008,06,13,06,29,0.90
2008,06,13,06,30,1.30
2008,06,13,06,31,0.60
2008,06,13,06,32,2.00
2008,06,13,06,33,0.40
2008,06,13,06,34,0.20
2008,06,13,06,35,0.00
2008,06,13,06,36,1.10
2008,06,13,06,37,0.90
2008,06,13,06,38,0.00
2008,06,13,06,39,0.00
2008,06,13,06,40,0.90
2008,06,13,06,41,0.10
2008,06,13,06,42,1.00
2008,06,13,06,43,0.50
2008,06,13,06,44,1.00
2008,06,13,06,45,0.00
2008,06,13,06,46,0.00
2008,06,13,06,47,0.00
2008,06,13,06,48,1.70
2008,06,13,06,49,0.70
2008,06,13,06,50,0.00
2008,06,13,06,51,0.00
2008,06,13,06,52,0.00
2008,06,13,06,53,0.50
2008,06,13,06,54,0.00
2008,06,13,06,55,0.00
2008,06,13,06,56,1.00
2008,06,13,06,57,1.50
2008,06,13,06,58,0.30
2008,06,13,06,59,0.10
2008,06,13,07,00,0.00
2008,06,13,07,01,1.20
2008,06,13,07,02,0.30
2008,06,13,07,03,0.00
2008,06,13,07,04,0.40
2008,06,13,07,05,0.90
2008,06,13,07,06,0.00
2008,06,13,07,07,0.50
2008,06,13,07,08,1.00
2008,06,13,07,09,0.60
2008,06,13,07,10,0.30
2008,06,13,07,11,1.60
2008,06,13,07,12,0.50
2008,06,13,07,13,0.90
2008,06,13,07,14,3.10
2008,06,13,07,15,2.80
2008,06,13,07,16,1.80
2008,06,13,07,17,1.00
2008,06,13,07,18,1.20
2008,06,13,07,19,2.10
2008,06,13,07,20,2.20
2008,06,13,07,21,2.20
2008,06,13,07,22,3.50
2008,06,13,07,23,2.30
2008,06,13,07,24,2.60
2008,06,13,07,25,1.30
2008,06,13,07,26,3.40
2008,06,13,07,27,3.20
2008,06,13,07,28,2.60
2008,06,13,07,29,4.40
2008,06,13,07,30,4.70
2008,06,13,07,31,5.70
2008,06,13,07,32,5.10
2008,06,13,07,33,3.60
2008,06,13,07,34,4.00
2008,06,13,07,35,7.60
2008,06,13,07,36,7.70
2008,06,13,07,37,11.30
2008,06,13,07,38,10.30
2008,06,13,07,39,5.60
2008,06,13,07,40,8.00
2008,06,13,07,41,6.30
2008,06,13,07,42,7.20
2008,06,13,07,43,9.50
2008,06,13,07,44,11.50
2008,06,13,07,45,9.10
2008,06,13,07,46,7.60
2008,06,13,07,47,9.00
2008,06,13,07,48,8.80
2008,06,13,07,49,8.20
2008,06,13,07,50,6.90
2008,06,13,07,51,9.20
2008,06,13,07,52,11.80
2008,06,13,07,53,11.80
2008,06,13,07,54,14.00
2008,06,13,07,55,5.10
2008,06,13,07,56,6.20
2008,06,13,07,57,7.00
2008,06,13,07,58,6.00
2008,06,13,07,59,8.10
2008,06,13,08,00,5.70
2008,06,13,08,01,5.10
2008,06,13,08,02,9.70
2008,06,13,08,03,14.60
2008,06,13,08,04,11.00
2008,06,13,08,05,7.40
2008,06,13,08,06,13.40
2008,06,13,08,07,12.00
2008,06,13,08,08,9.50
2008,06,13,08,09,8.20
2008,06,13,08,10,13.80
2008,06,13,08,11,8.20
2008,06,13,08,12,11.20
2008,06,13,08,13,6.20
2008,06,13,08,14,6.70
2008,06,13,08,15,6.50
2008,06,13,08,16,17.10
2008,06,13,08,17,11.30
2008,06,13,08,18,10.50
2008,06,13,08,19,8.80
2008,06,13,08,20,11.90
2008,06,13,08,21,10.40
2008,06,13,08,22,16.90
2008,06,13,08,23,12.00
2008,06,13,08,24,12.90
2008,06,13,08,25,13.40
2008,06,13,08,26,17.50
2008,06,13,08,27,14.20
2008,06,13,08,28,7.40
2008,06,13,08,29,8.60
2008,06,13,08,30,8.70
2008,06,13,08,31,12.30
2008,06,13,08,32,14.00
2008,06,13,08,33,8.70
2008,06,13,08,34,9.50
2008,06,13,08,35,7.70
2008,06,13,08,36,13.30
2008,06,13,08,37,9.70
2008,06,13,08,38,9.40
2008,06,13,08,39,5.60
2008,06,13,08,40,13.70
2008,06,13,08,41,8.10
2008,06,13,08,42,16.40
2008,06,13,08,43,7.90
2008,06,13,08,44,10.90
2008,06,13,08,45,12.90
2008,06,13,08,46,9.10
2008,06,13,08,47,11.20
2008,06,13,08,48,11.10
2008,06,13,08,49,7.70
2008,06,13,08,50,15.60
2008,06,13,08,51,9.10
2008,06,13,08,52,14.00
2008,06,13,08,53,8.70
2008,06,13,08,54,4.60
2008,06,13,08,55,10.30
2008,06,13,08,56,6.40
2008,06,13,08,57,8.20
2008,06,13,08,58,13.50
2008,06,13,08,59,10.50
2008,06,13,09,00,10.20
2008,06,13,09,01,11.40
2008,06,13,09,02,5.30
2008,06,13,09,03,10.50
2008,06,13,09,04,8.00
2008,06,13,09,05,6.00
2008,06,13,09,06,11.30
2008,06,13,09,07,10.20
2008,06,13,09,08,13.60
2008,06,13,09,09,13.30
2008,06,13,09,10,11.00
2008,06,13,09,11,7.40
2008,06,13,09,12,7.40
2008,06,13,09,13,7.70
2008,06,13,09,14,6.30
2008,06,13,09,15,9.30
2008,06,13,09,16,2.90
2008,06,13,09,17,12.40
2008,06,13,09,18,8.70
2008,06,13,09,19,13.90
2008,06,13,09,20,16.40
2008,06,13,09,21,12.20
2008,06,13,09,22,13.00
2008,06,13,09,23,6.80
2008,06,13,09,24,8.20
2008,06,13,09,25,9.70
2008,06,13,09,26,10.90
2008,06,13,09,27,13.00
2008,06,13,09,28,6.60
2008,06,13,09,29,7.40
2008,06,13,09,30,6.00
2008,06,13,09,31,5.10
2008,06,13,09,32,7.50
2008,06,13,09,33,7.70
2008,06,13,09,34,10.80
2008,06,13,09,35,13.30
2008,06,13,09,36,12.10
2008,06,13,09,37,6.80
2008,06,13,09,38,8.10
2008,06,13,09,39,11.90
2008,06,13,09,40,13.10
2008,06,13,09,41,13.50
2008,06,13,09,42,16.00
2008,06,13,09,43,11.30
2008,06,13,09,44,17.10
2008,06,13,09,45,11.80
2008,06,13,09,46,14.60
2008,06,13,09,47,8.00
2008,06,13,09,48,11.50
2008,06,13,09,49,7.60
2008,06,13,09,50,6.60
2008,06,13,09,51,6.40
2008,06,13,09,52,11.70
2008,06,13,09,53,8.40
2008,06,13,09,54,11.20
2008,06,13,09,55,7.50
2008,06,13,09,56,10.40
2008,06,13,09,57,7.40
2008,06,13,09,58,7.00
2008,06,13,09,59,10.20
2008,06,13,10,00,8.50
2008,06,13,10,01,8.30
2008,06,13,10,02,8.00
2008,06,13,10,03,11.50
2008,06,13,10,04,7.00
2008,06,13,10,05,8.10
2008,06,13,10,06,6.70
2008,06,13,10,07,7.40
2008,06,13,10,08,7.60
2008,06,13,10,09,7.50
2008,06,13,10,10,10.80
2008,06,13,10,11,7.20
2008,06,13,10,12,13.60
2008,06,13,10,13,9.80
2008,06,13,10,14,13.00
2008,06,13,10,15,15.90
2008,06,13,10,16,18.60
2008,06,13,10,17,10.80
2008,06,13,10,18,19.00
2008,06,13,10,19,8.00
2008,06,13,10,20,14.50
2008,06,13,10,21,8.50
2008,06,13,10,22,7.60
2008,06,13,10,23,16.20
2008,06,13,10,24,11.60
2008,06,13,10,25,17.20
2008,06,13,10,26,14.50
2008,06,13,10,27,16.50
2008,06,13,10,28,17.70
2008,06,13,10,29,17.30
2008,06,13,10,30,10.50
2008,06,13,10,31,9.00
2008,06,13,10,32,11.70
2008,06,13,10,33,17.60
2008,06,13,10,34,11.30
2008,06,13,10,35,17.60
2008,06,13,10,36,25.70
2008,06,13,10,37,18.50
2008,06,13,10,38,11.10
2008,06,13,10,39,23.50
2008,06,13,10,40,23.00
2008,06,13,10,41,16.10
2008,06,13,10,42,21.00
2008,06,13,10,43,22.70
2008,06,13,10,44,25.70
2008,06,13,10,45,18.00
2008,06,13,10,46,20.70
2008,06,13,10,47,8.50
2008,06,13,10,48,12.80
2008,06,13,10,49,20.90
2008,06,13,10,50,19.20
2008,06,13,10,51,15.00
2008,06,13,10,52,20.60
2008,06,13,10,53,20.70
2008,06,13,10,54,16.60
2008,06,13,10,55,9.50
2008,06,13,10,56,12.30
2008,06,13,10,57,7.40
2008,06,13,10,58,8.90
2008,06,13,10,59,11.70
2008,06,13,11,00,7.70
2008,06,13,11,01,6.90
2008,06,13,11,02,16.90
2008,06,13,11,03,15.20
2008,06,13,11,04,16.40
2008,06,13,11,05,16.40
2008,06,13,11,06,20.80
2008,06,13,11,07,10.50
2008,06,13,11,08,15.10
2008,06,13,11,09,17.60
2008,06,13,11,10,21.60
2008,06,13,11,11,18.10
2008,06,13,11,12,21.10
2008,06,13,11,13,20.00
2008,06,13,11,14,22.40
2008,06,13,11,15,23.10
2008,06,13,11,16,11.70
2008,06,13,11,17,22.80
2008,06,13,11,18,18.60
2008,06,13,11,19,16.00
2008,06,13,11,20,7.20
2008,06,13,11,21,19.20
2008,06,13,11,22,16.50
2008,06,13,11,23,16.20
2008,06,13,11,24,6.50
2008,06,13,11,25,15.70
2008,06,13,11,26,14.10
2008,06,13,11,27,8.00
2008,06,13,11,28,12.60
2008,06,13,11,29,10.90
2008,06,13,11,30,8.40
2008,06,13,11,31,9.80
2008,06,13,11,32,13.90
2008,06,13,11,33,12.60
2008,06,13,11,34,19.10
2008,06,13,11,35,21.80
2008,06,13,11,36,13.10
2008,06,13,11,37,15.40
2008,06,13,11,38,7.60
2008,06,13,11,39,11.10
2008,06,13,11,40,8.00
2008,06,13,11,41,9.80
2008,06,13,11,42,5.10
2008,06,13,11,43,14.90
2008,06,13,11,44,15.30
2008,06,13,11,45,14.20
2008,06,13,11,46,18.00
2008,06,13,11,47,19.10
2008,06,13,11,48,10.80
2008,06,13,11,49,15.70
2008,06,13,11,50,19.90
2008,06,13,11,51,14.10
2008,06,13,11,52,16.00
2008,06,13,11,53,14.70
2008,06,13,11,54,12.50
2008,06,13,11,55,8.50
2008,06,13,11,56,15.90
2008,06,13,11,57,9.70
2008,06,13,11,58,12.20
2008,06,13,11,59,13.30
2008,06,13,12,00,18.70
2008,06,13,12,01,18.10
2008,06,13,12,02,20.80
2008,06,13,12,03,13.80
2008,06,13,12,04,16.60
2008,06,13,12,05,18.30
2008,06,13,12,06,21.50
2008,06,13,12,07,25.70
2008,06,13,12,08,19.50
2008,06,13,12,09,12.90
2008,06,13,12,10,15.00
2008,06,13,12,11,17.40
2008,06,13,12,12,15.70
2008,06,13,12,13,8.90
2008,06,13,12,14,18.00
2008,06,13,12,15,16.50
2008,06,13,12,16,15.00
2008,06,13,12,17,18.40
2008,06,13,12,18,11.80
2008,06,13,12,19,15.30
2008,06,13,12,20,15.20
2008,06,13,12,21,12.00
2008,06,13,12,22,17.50
2008,06,13,12,23,16.30
2008,06,13,12,24,17.90
2008,06,13,12,25,16.00
2008,06,13,12,26,14.40
2008,06,13,12,27,15.40
2008,06,13,12,28,22.70
2008,06,13,12,29,17.90
2008,06,13,12,30,14.40
2008,06,13,12,31,17.20
2008,06,13,12,32,21.50
2008,06,13,12,33,17.10
2008,06,13,12,34,19.20
2008,06,13,12,35,20.60
2008,06,13,12,36,9.60
2008,06,13,12,37,17.50
2008,06,13,12,38,18.10
2008,06,13,12,39,17.60
2008,06,13,12,40,17.40
2008,06,13,12,41,18.30
2008,06,13,12,42,16.60
2008,06,13,12,43,17.60
2008,06,13,12,44,24.90
2008,06,13,12,45,20.30
2008,06,13,12,46,13.00
2008,06,13,12,47,7.90
2008,06,13,12,48,13.20
2008,06,13,12,49,26.70
2008,06,13,12,50,21.40
2008,06,13,12,51,15.50
2008,06,13,12,52,10.10
2008,06,13,12,53,11.80
2008,06,13,12,54,13.90
2008,06,13,12,55,12.80
2008,06,13,12,56,12.60
2008,06,13,12,57,19.50
2008,06,13,12,58,9.60
2008,06,13,12,59,18.40
2008,06,13,13,00,15.00
2008,06,13,13,01,14.90
2008,06,13,13,02,17.40
2008,06,13,13,03,17.50
2008,06,13,13,04,26.10
2008,06,13,13,05,23.50
2008,06,13,13,06,9.90
2008,06,13,13,07,14.80
2008,06,13,13,08,17.30
2008,06,13,13,09,20.40
2008,06,13,13,10,12.00
2008,06,13,13,11,29.90
2008,06,13,13,12,25.40
2008,06,13,13,13,24.90
2008,06,13,13,14,29.00
2008,06,13,13,15,25.80
2008,06,13,13,16,19.40
2008,06,13,13,17,21.60
2008,06,13,13,18,18.00
2008,06,13,13,19,24.30
2008,06,13,13,20,12.50
2008,06,13,13,21,10.70
2008,06,13,13,22,10.80
2008,06,13,13,23,10.90
2008,06,13,13,24,17.80
2008,06,13,13,25,22.70
2008,06,13,13,26,21.60
2008,06,13,13,27,18.60
2008,06,13,13,28,24.50
2008,06,13,13,29,18.00
2008,06,13,13,30,25.70
2008,06,13,13,31,21.90
2008,06,13,13,32,25.20
2008,06,13,13,33,22.50
2008,06,13,13,34,19.40
2008,06,13,13,35,20.30
2008,06,13,13,36,14.80
2008,06,13,13,37,12.40
2008,06,13,13,38,22.40
2008,06,13,13,39,19.10
2008,06,13,13,40,14.90
2008,06,13,13,41,11.20
2008,06,13,13,42,19.90
2008,06,13,13,43,20.80
2008,06,13,13,44,18.10
2008,06,13,13,45,13.10
2008,06,13,13,46,18.60
2008,06,13,13,47,16.40
2008,06,13,13,48,13.80
2008,06,13,13,49,16.80
2008,06,13,13,50,21.20
2008,06,13,13,51,22.30
2008,06,13,13,52,24.90
2008,06,13,13,53,19.90
2008,06,13,13,54,24.50
2008,06,13,13,55,24.60
2008,06,13,13,56,17.20
2008,06,13,13,57,20.90
2008,06,13,13,58,21.40
2008,06,13,13,59,22.90
2008,06,13,14,00,24.40
2008,06,13,14,01,17.80
2008,06,13,14,02,20.90
2008,06,13,14,03,18.70
2008,06,13,14,04,14.20
2008,06,13,14,05,16.20
2008,06,13,14,06,20.10
2008,06,13,14,07,31.00
2008,06,13,14,08,21.20
2008,06,13,14,09,16.70
2008,06,13,14,10,15.90
2008,06,13,14,11,15.30
2008,06,13,14,12,38.70
2008,06,13,14,13,15.90
2008,06,13,14,14,15.40
2008,06,13,14,15,17.30
2008,06,13,14,16,21.20
2008,06,13,14,17,20.00
2008,06,13,14,18,20.00
2008,06,13,14,19,18.30
2008,06,13,14,20,12.20
2008,06,13,14,21,16.00
2008,06,13,14,22,18.90
2008,06,13,14,23,19.60
2008,06,13,14,24,14.50
2008,06,13,14,25,17.10
2008,06,13,14,26,21.30
2008,06,13,14,27,20.20
2008,06,13,14,28,20.70
2008,06,13,14,29,19.40
2008,06,13,14,30,15.80
2008,06,13,14,31,15.20
2008,06,13,14,32,24.20
2008,06,13,14,33,14.40
2008,06,13,14,34,17.00
2008,06,13,14,35,24.80
2008,06,13,14,36,25.30
2008,06,13,14,37,26.20
2008,06,13,14,38,23.30
2008,06,13,14,39,28.60
2008,06,13,14,40,26.20
2008,06,13,14,41,20.80
2008,06,13,14,42,25.60
2008,06,13,14,43,24.50
2008,06,13,14,44,27.20
2008,06,13,14,45,25.20
2008,06,13,14,46,13.70
2008,06,13,14,47,23.00
2008,06,13,14,48,16.80
2008,06,13,14,49,21.80
2008,06,13,14,50,19.60
2008,06,13,14,51,24.10
2008,06,13,14,52,23.80
2008,06,13,14,53,36.80
2008,06,13,14,54,33.50
2008,06,13,14,55,31.30
2008,06,13,14,56,33.80
2008,06,13,14,57,26.70
2008,06,13,14,58,31.60
2008,06,13,14,59,24.10
2008,06,13,15,00,20.90
2008,06,13,15,01,26.60
2008,06,13,15,02,25.00
2008,06,13,15,03,21.40
2008,06,13,15,04,24.50
2008,06,13,15,05,30.30
2008,06,13,15,06,22.50
2008,06,13,15,07,21.50
2008,06,13,15,08,25.80
2008,06,13,15,09,18.30
2008,06,13,15,10,20.80
2008,06,13,15,11,15.90
2008,06,13,15,12,8.60
2008,06,13,15,13,12.10
2008,06,13,15,14,12.20
2008,06,13,15,15,17.50
2008,06,13,15,16,21.60
2008,06,13,15,17,14.40
2008,06,13,15,18,24.10
2008,06,13,15,19,13.00
2008,06,13,15,20,13.30
2008,06,13,15,21,11.00
2008,06,13,15,22,16.70
2008,06,13,15,23,13.60
2008,06,13,15,24,28.00
2008,06,13,15,25,15.60
2008,06,13,15,26,20.20
2008,06,13,15,27,16.40
2008,06,13,15,28,16.10
2008,06,13,15,29,16.30
2008,06,13,15,30,20.20
2008,06,13,15,31,10.60
2008,06,13,15,32,17.40
2008,06,13,15,33,22.50
2008,06,13,15,34,24.20
2008,06,13,15,35,16.40
2008,06,13,15,36,28.90
2008,06,13,15,37,23.60
2008,06,13,15,38,20.80
2008,06,13,15,39,20.00
2008,06,13,15,40,33.10
2008,06,13,15,41,29.10
2008,06,13,15,42,19.20
2008,06,13,15,43,26.40
2008,06,13,15,44,30.00
2008,06,13,15,45,27.40
2008,06,13,15,46,28.60
2008,06,13,15,47,26.30
2008,06,13,15,48,18.90
2008,06,13,15,49,16.80
2008,06,13,15,50,18.70
2008,06,13,15,51,30.30
2008,06,13,15,52,19.60
2008,06,13,15,53,21.60
2008,06,13,15,54,22.20
2008,06,13,15,55,25.30
2008,06,13,15,56,30.90
2008,06,13,15,57,19.50
2008,06,13,15,58,25.60
2008,06,13,15,59,22.00
2008,06,13,16,00,24.50
2008,06,13,16,01,27.00
2008,06,13,16,02,24.50
2008,06,13,16,03,15.90
2008,06,13,16,04,11.00
2008,06,13,16,05,15.90
2008,06,13,16,06,20.80
2008,06,13,16,07,12.60
2008,06,13,16,08,12.90
2008,06,13,16,09,20.40
2008,06,13,16,10,31.00
2008,06,13,16,11,28.10
2008,06,13,16,12,17.30
2008,06,13,16,13,19.90
2008,06,13,16,14,13.20
2008,06,13,16,15,15.80
2008,06,13,16,16,17.10
2008,06,13,16,17,14.40
2008,06,13,16,18,11.20
2008,06,13,16,19,25.90
2008,06,13,16,20,17.90
2008,06,13,16,21,15.10
2008,06,13,16,22,11.30
2008,06,13,16,23,13.70
2008,06,13,16,24,17.40
2008,06,13,16,25,17.20
2008,06,13,16,26,23.20
2008,06,13,16,27,16.40
2008,06,13,16,28,11.20
2008,06,13,16,29,15.90
2008,06,13,16,30,15.90
2008,06,13,16,31,19.30
2008,06,13,16,32,20.80
2008,06,13,16,33,18.90
2008,06,13,16,34,24.90
2008,06,13,16,35,24.40
2008,06,13,16,36,22.30
2008,06,13,16,37,19.50
2008,06,13,16,38,17.10
2008,06,13,16,39,19.70
2008,06,13,16,40,11.90
2008,06,13,16,41,13.80
2008,06,13,16,42,16.80
2008,06,13,16,43,22.20
2008,06,13,16,44,15.10
2008,06,13,16,45,16.20
2008,06,13,16,46,25.80
2008,06,13,16,47,23.90
2008,06,13,16,48,18.90
2008,06,13,16,49,22.30
2008,06,13,16,50,24.70
2008,06,13,16,51,17.90
2008,06,13,16,52,31.30
2008,06,13,16,53,18.30
2008,06,13,16,54,29.80
2008,06,13,16,55,22.80
2008,06,13,16,56,24.10
2008,06,13,16,57,26.00
2008,06,13,16,58,17.30
2008,06,13,16,59,17.50
2008,06,13,17,00,17.10
2008,06,13,17,01,15.90
2008,06,13,17,02,14.50
2008,06,13,17,03,16.10
2008,06,13,17,04,14.20
2008,06,13,17,05,16.60
2008,06,13,17,06,12.90
2008,06,13,17,07,23.10
2008,06,13,17,08,23.10
2008,06,13,17,09,21.60
2008,06,13,17,10,22.50
2008,06,13,17,11,15.30
2008,06,13,17,12,19.10
2008,06,13,17,13,14.10
2008,06,13,17,14,19.90
2008,06,13,17,15,9.80
2008,06,13,17,16,13.10
2008,06,13,17,17,21.00
2008,06,13,17,18,12.70
2008,06,13,17,19,13.60
2008,06,13,17,20,20.20
2008,06,13,17,21,29.00
2008,06,13,17,22,17.20
2008,06,13,17,23,12.20
2008,06,13,17,24,17.70
2008,06,13,17,25,20.40
2008,06,13,17,26,23.70
2008,06,13,17,27,19.20
2008,06,13,17,28,29.10
2008,06,13,17,29,22.40
2008,06,13,17,30,20.30
2008,06,13,17,31,18.50
2008,06,13,17,32,17.90
2008,06,13,17,33,21.20
2008,06,13,17,34,13.50
2008,06,13,17,35,15.60
2008,06,13,17,36,18.60
2008,06,13,17,37,10.70
2008,06,13,17,38,21.70
2008,06,13,17,39,28.30
2008,06,13,17,40,23.60
2008,06,13,17,41,20.20
2008,06,13,17,42,15.50
2008,06,13,17,43,12.70
2008,06,13,17,44,17.10